Weather History for Stuart, FL

Change the Weather History Date:

Friday, June 14, 2013

  Actual Average Record
Temperature  
Mean Temperature 81 °F -  
Max Temperature 91 °F 87 °F 96 °F (2006)
Min Temperature 71 °F 72 °F 66 °F (1960)
Cooling Degree Days 16    
Growing Degree Days 31 (Base 50)    
Moisture  
Dew Point 71 °F    
Average Humidity 80    
Maximum Humidity 94    
Minimum Humidity 41    
Precipitation  
Precipitation 0.00 in - - ()
Sea Level Pressure  
Sea Level Pressure 29.95 in    
Wind  
Wind Speed 6 mph (SW)    
Max Wind Speed 15 mph    
Max Gust Speed 17 mph    
Visibility 9 miles    
Events      
Averages and records for this station are not official NWS values.
T = Trace of Precipitation, MM = Missing Value Source: NWS Daily Summary

Daily Weather History Graph

Daily Weather History Graph

Search for Another Location

Airport:

Trip Planner

Search our weather history database for the weather conditions in past years. The results will help you decide how hot, cold, wet, or windy it might be!

Date:

Astronomy

Jun. 14, 2013 Rise Set
Actual Time 6:25 AM EDT 8:16 PM EDT
Civil Twilight 5:59 AM EDT 8:43 PM EDT
Nautical Twilight 5:27 AM EDT 9:14 PM EDT
Astronomical Twilight 4:53 AM EDT 9:48 PM EDT
Moon 11:34 AM EDT (6/14) No Moon Set
Length of Visible Light 14h 43m
Length of Day
13h 50m
Waxing Crescent, 30% of the Moon is Illuminated
Jun 14
Waxing Crescent
Jun 16
First Quarter
Jun 23
Full
Jun 30
Last Quarter
Jul 8
New

Hourly Weather History & Observations

Time (EDT) Temp. Heat Index Dew Point Humidity Pressure Visibility Wind Dir Wind Speed Gust Speed Precip Events Conditions
12:15 AM 75.2 °F - 69.8 °F 83% 29.99 in 10.0 mi SW 4.6 mph - N/A   Clear
12:35 AM 75.2 °F - 69.8 °F 83% 29.99 in 10.0 mi SW 4.6 mph - N/A   Clear
12:55 AM 75.2 °F - 69.8 °F 83% 29.98 in 10.0 mi SW 4.6 mph - N/A   Clear
1:15 AM 75.2 °F - 71.6 °F 89% 29.98 in 10.0 mi SW 3.5 mph - N/A   Clear
1:35 AM 75.2 °F - 71.6 °F 89% 29.97 in 10.0 mi SW 4.6 mph - N/A   Clear
1:55 AM 75.2 °F - 71.6 °F 89% 29.96 in 10.0 mi SW 5.8 mph - N/A   Clear
2:15 AM 73.4 °F - 71.6 °F 94% 29.96 in 10.0 mi SW 3.5 mph - N/A   Clear
2:35 AM 73.4 °F - 71.6 °F 94% 29.95 in 10.0 mi WSW 4.6 mph - N/A   Clear
2:55 AM 73.4 °F - 71.6 °F 94% 29.95 in 10.0 mi SW 4.6 mph - N/A   Clear
3:15 AM 73.4 °F - 71.6 °F 94% 29.95 in 10.0 mi SW 3.5 mph - N/A   Clear
3:35 AM 73.4 °F - 71.6 °F 94% 29.95 in 10.0 mi SSW 4.6 mph - N/A   Clear
3:55 AM 73.4 °F - 71.6 °F 94% 29.95 in 10.0 mi SW 4.6 mph - N/A   Clear
4:15 AM 73.4 °F - 71.6 °F 94% 29.94 in 10.0 mi SSW 5.8 mph - N/A   Clear
4:35 AM 73.4 °F - 71.6 °F 94% 29.93 in 10.0 mi SW 5.8 mph - N/A   Clear
4:55 AM 73.4 °F - 71.6 °F 94% 29.92 in 10.0 mi SW 6.9 mph - N/A   Clear
5:15 AM 73.4 °F - 71.6 °F 94% 29.92 in 10.0 mi SW 8.1 mph - N/A   Clear
5:35 AM 73.4 °F - 71.6 °F 94% 29.92 in 10.0 mi WSW 8.1 mph - N/A   Clear
5:55 AM 73.4 °F - 71.6 °F 94% 29.93 in 10.0 mi WSW 6.9 mph - N/A   Clear
6:15 AM 75.2 °F - 71.6 °F 89% 29.94 in 10.0 mi WSW 5.8 mph - N/A   Clear
6:47 AM 75.2 °F - 73.4 °F 94% 29.94 in 7.0 mi WSW 4.6 mph - N/A   Partly Cloudy
7:47 AM 77.0 °F - 75.2 °F 94% 29.93 in 7.0 mi SW 4.6 mph - N/A   Partly Cloudy
8:47 AM 80.6 °F 86.2 °F 75.2 °F 84% 29.95 in 7.0 mi West 8.1 mph - N/A   Scattered Clouds
9:47 AM 82.4 °F 89.5 °F 75.2 °F 79% 29.96 in 7.0 mi West 11.5 mph - N/A   Mostly Cloudy
10:47 AM 86.0 °F 93.4 °F 73.4 °F 66% 29.95 in 7.0 mi WNW 11.5 mph - N/A   Mostly Cloudy
11:47 AM 86.0 °F 91.8 °F 71.6 °F 62% 29.96 in 7.0 mi West 15.0 mph - N/A   Mostly Cloudy
12:47 PM 87.8 °F 93.8 °F 71.6 °F 58% 29.95 in 7.0 mi WSW 8.1 mph - N/A   Mostly Cloudy
1:47 PM 87.8 °F 92.6 °F 69.8 °F 55% 29.94 in 7.0 mi West 11.5 mph - N/A   Mostly Cloudy
2:47 PM 71.6 °F - 64.4 °F 78% 29.92 in 7.0 mi West 11.5 mph 17.3 mph N/A   Mostly Cloudy
3:47 PM 91.4 °F 93.2 °F 64.4 °F 41% 29.91 in 7.0 mi West 12.7 mph 16.1 mph N/A   Mostly Cloudy
6:47 PM 84.2 °F 86.6 °F 66.2 °F 55% 29.88 in 7.0 mi Calm Calm - N/A   Mostly Cloudy
8:15 PM 86.0 °F 89.4 °F 68.0 °F 55% 29.91 in 10.0 mi South 5.8 mph - N/A   Scattered Clouds
8:35 PM 84.2 °F 87.3 °F 68.0 °F 58% 29.91 in 10.0 mi South 6.9 mph - N/A   Mostly Cloudy
8:55 PM 82.4 °F 86.3 °F 69.8 °F 66% 29.93 in 10.0 mi South 4.6 mph - N/A   Scattered Clouds
9:15 PM 82.4 °F 87.2 °F 71.6 °F 70% 29.94 in 10.0 mi SSW 4.6 mph - N/A   Mostly Cloudy
9:35 PM 82.4 °F 87.2 °F 71.6 °F 70% 29.95 in 10.0 mi SW 5.8 mph - N/A   Scattered Clouds
9:55 PM 82.4 °F 88.2 °F 73.4 °F 74% 29.96 in 10.0 mi SSW 4.6 mph - N/A   Clear
10:15 PM 80.6 °F 85.4 °F 73.4 °F 79% 29.96 in 10.0 mi SW 6.9 mph - N/A   Clear
10:35 PM 80.6 °F 85.4 °F 73.4 °F 79% 29.95 in 10.0 mi SW 6.9 mph - N/A   Clear
10:55 PM 80.6 °F 85.4 °F 73.4 °F 79% 29.96 in 10.0 mi SW 6.9 mph - N/A   Clear
11:15 PM 80.6 °F 84.6 °F 71.6 °F 74% 29.95 in 10.0 mi SW 8.1 mph - N/A   Clear
11:35 PM 80.6 °F 84.6 °F 71.6 °F 74% 29.96 in 10.0 mi SW 8.1 mph - N/A   Clear
11:55 PM 80.6 °F 84.6 °F 71.6 °F 74% 29.96 in 10.0 mi WSW 5.8 mph - N/A   Clear